Le nostre stazioni meteo in Italia

Pubblicità
Il mio iltempo24.it
Grazzanise, Italia (16253): Temperatura & dewpoint: 20.08.2019 12:00:00 - 26.08.2019 12:00:00 (CEST)Grazzanise, Italia (16253): velocità del vento: 20.08.2019 12:00:00 - 26.08.2019 12:00:00 (CEST)Grazzanise, Italia (16253): direzione del vento: 20.08.2019 12:00:00 - 26.08.2019 12:00:00 (CEST)Grazzanise, Italia (16253): reduced air pressure: 20.08.2019 12:00:00 - 26.08.2019 12:00:00 (CEST)Grazzanise, Italia (16253): visibility: 20.08.2019 12:00:00 - 26.08.2019 12:00:00 (CEST)Grazzanise, Italia (16253): ore di luce: 20.08.2019 12:00:00 - 26.08.2019 12:00:00 (CEST)
Data & Tempo tt [°C] td [°C] ff [km/h] ff [kn] dd ppp [hPa] vv [km] sd [min]
26.08.2019 12:00:00 - - - - - - - -
26.08.2019 11:00:00 29,0 20,5 5 3 NE 1016,2 15 -
26.08.2019 10:00:00 25,0 20,0 9 5 NE - 10 -
26.08.2019 09:00:00 23,0 21,0 11 6 NE - 10 -
26.08.2019 08:00:00 21,2 21,0 9 5 NE 1015,7 12 0
26.08.2019 07:00:00 22,0 22,0 8 4 NNE - 10 -
26.08.2019 06:00:00 21,0 21,0 5 3 NNE - 10 -
26.08.2019 05:00:00 21,8 21,8 9 5 NE 1015,2 10 -
26.08.2019 04:00:00 22,0 21,0 8 4 NNE - 10 -
26.08.2019 03:00:00 22,0 22,0 5 3 N - 10 -
26.08.2019 02:00:00 22,8 21,1 9 5 NE 1015,8 14 -
26.08.2019 01:00:00 23,0 21,0 9 5 N - 10 -
26.08.2019 00:00:00 24,0 21,0 9 5 N - 10 -
25.08.2019 23:00:00 24,6 20,9 9 5 NE 1016,1 14 -
25.08.2019 22:00:00 25,0 20,0 8 4 ENE - 10 -
25.08.2019 21:00:00 27,0 23,0 16 9 ENE - 10 -
25.08.2019 20:00:00 28,8 27,0 5 3 OSO 1014,8 10 42
25.08.2019 19:00:00 29,0 25,0 11 6 O - 10 -
25.08.2019 18:00:00 30,0 24,0 15 8 O - 10 -
25.08.2019 17:00:00 32,0 23,8 18 10 OSO 1014,4 15 60
25.08.2019 16:00:00 32,0 23,0 15 8 OSO - 10 -
25.08.2019 15:00:00 32,0 25,0 9 5 OSO - 10 -
25.08.2019 14:00:00 31,2 22,5 8 4 O 1015,6 15 48
25.08.2019 13:00:00 31,0 23,0 4 2 O - 10 -
25.08.2019 12:00:00 31,0 23,0 4 2 O - 10 -
25.08.2019 11:00:00 30,0 23,9 5 3 ONO 1016,2 15 54
25.08.2019 10:00:00 27,0 21,0 11 6 NE - 10 -
25.08.2019 09:00:00 24,0 21,0 13 7 NNE - 10 -
25.08.2019 08:00:00 22,2 20,8 9 5 NNE 1015,4 20 12
25.08.2019 07:00:00 21,0 20,0 9 5 NNE - 10 -
25.08.2019 06:00:00 22,0 20,0 11 6 NNE - 10 -
25.08.2019 05:00:00 22,4 19,8 9 5 NNE 1015,7 20 -
25.08.2019 04:00:00 22,0 19,0 15 8 NE - 10 -
25.08.2019 03:00:00 22,0 20,0 15 8 NNE - 10 -
25.08.2019 02:00:00 22,0 18,4 11 6 NNE 1016,4 10 -
25.08.2019 01:00:00 24,0 19,0 15 8 NE - 10 -
25.08.2019 00:00:00 24,0 19,0 15 8 NE - 10 -
24.08.2019 23:00:00 23,8 19,1 15 8 NE 1016,2 20 -
24.08.2019 22:00:00 24,0 19,0 9 5 N - 10 -
24.08.2019 21:00:00 25,0 20,0 9 5 NNE - 10 -
24.08.2019 20:00:00 26,4 19,3 11 6 NE 1016,1 15 12
24.08.2019 19:00:00 30,0 25,0 9 5 NE - 10 -
24.08.2019 18:00:00 30,0 25,0 8 4 O - 10 -
24.08.2019 17:00:00 31,2 21,7 15 8 OSO 1015,1 18 60
24.08.2019 16:00:00 32,0 20,0 18 10 OSO - 10 -
24.08.2019 15:00:00 34,0 19,0 13 7 OSO - 10 -
24.08.2019 14:00:00 33,8 22,3 9 5 OSO 1016,1 18 60
24.08.2019 13:00:00 33,0 20,0 5 3 O - 10 -
24.08.2019 12:00:00 33,0 20,0 4 2 ONO - 10 -
24.08.2019 11:00:00 30,2 19,9 5 3 E 1016,9 20 60
24.08.2019 10:00:00 28,0 21,0 13 7 NE - 10 -
24.08.2019 09:00:00 26,0 21,0 13 7 NE - 10 -
24.08.2019 08:00:00 23,6 20,7 4 2 N 1016,2 15 0
24.08.2019 07:00:00 23,0 20,0 15 8 NNE - 10 -
24.08.2019 06:00:00 23,0 20,0 13 7 NNE - 10 -
24.08.2019 05:00:00 23,0 19,6 9 5 N 1016,3 20 -
24.08.2019 04:00:00 23,0 19,0 11 6 NNE - 10 -
24.08.2019 03:00:00 23,0 20,0 15 8 NE - 10 -
24.08.2019 02:00:00 23,4 20,2 13 7 NE 1016,4 20 -
24.08.2019 01:00:00 23,0 19,0 18 10 NNE - 10 -
24.08.2019 00:00:00 24,0 20,0 9 5 N - 10 -
23.08.2019 23:00:00 24,6 19,9 18 10 NNE 1017,2 15 -
23.08.2019 22:00:00 25,0 20,0 13 7 NE - 10 -
23.08.2019 21:00:00 25,0 21,0 11 6 NNE - 10 -
23.08.2019 20:00:00 27,0 20,3 15 8 NNE 1017,6 10 0
23.08.2019 19:00:00 28,0 20,0 24 13 NE - 10 -
23.08.2019 18:00:00 31,0 22,0 22 12 ENE - 10 -
23.08.2019 17:00:00 31,0 27,1 15 8 O 1016,1 20 60
23.08.2019 16:00:00 32,0 27,0 18 10 O - 10 -
23.08.2019 15:00:00 33,0 22,0 29 16 OSO - 10 -
23.08.2019 14:00:00 33,0 20,5 22 12 OSO 1016,9 15 60
23.08.2019 13:00:00 36,0 17,0 5 3 ESE - 10 -
23.08.2019 12:00:00 35,0 17,0 8 4 ESE - 10 -
23.08.2019 11:00:00 32,0 18,6 8 4 NE 1017,4 20 60
23.08.2019 10:00:00 30,0 20,0 15 8 NE - 10 -
23.08.2019 09:00:00 28,0 19,0 11 6 NNE - 10 -
23.08.2019 08:00:00 26,0 19,6 15 8 NNE 1017,3 15 18
23.08.2019 07:00:00 25,0 19,0 9 5 NNE - 10 -
23.08.2019 06:00:00 24,0 21,0 11 6 NNE - 10 -
23.08.2019 05:00:00 24,6 23,0 11 6 N 1017,3 10 -
23.08.2019 04:00:00 24,0 23,0 9 5 N - 10 -
23.08.2019 03:00:00 24,0 23,0 9 5 NE - 10 -
23.08.2019 02:00:00 23,8 23,0 11 6 NNE 1017,1 10 -
23.08.2019 01:00:00 24,0 23,0 5 3 NNE - 10 -
23.08.2019 00:00:00 25,0 24,0 2 1 S - 10 -
22.08.2019 23:00:00 24,8 23,6 4 2 ENE 1017,2 12 -
22.08.2019 22:00:00 25,0 23,0 8 4 SE - 10 -
22.08.2019 21:00:00 25,0 24,0 8 4 SSO - 10 -
22.08.2019 20:00:00 26,2 23,5 15 8 OSO 1016,6 20 12
22.08.2019 19:00:00 28,0 25,0 15 8 O - 10 -
22.08.2019 18:00:00 30,0 26,0 18 10 O - 10 -
22.08.2019 17:00:00 30,4 26,1 18 10 O 1016,3 15 60
22.08.2019 16:00:00 31,0 25,0 18 10 O - 10 -
22.08.2019 15:00:00 33,0 20,0 15 8 OSO - 10 -
22.08.2019 14:00:00 33,4 19,5 9 5 OSO 1017,1 10 60
22.08.2019 13:00:00 33,0 22,0 8 4 OSO - 10 -
22.08.2019 12:00:00 31,0 21,0 5 3 O - 10 -
22.08.2019 11:00:00 30,2 20,2 5 3 O 1017,4 10 60
22.08.2019 10:00:00 29,0 22,0 0 0 N - 10 -
22.08.2019 09:00:00 26,0 21,0 4 2 NE - 10 -
22.08.2019 08:00:00 22,0 20,3 0 0 N 1017,2 10 12
22.08.2019 07:00:00 21,0 19,0 2 1 ENE - 10 -
22.08.2019 06:00:00 21,0 20,0 2 1 N - 10 -
22.08.2019 05:00:00 21,2 19,9 4 2 NNE 1017,2 10 -
22.08.2019 04:00:00 22,0 21,0 4 2 NNE - 10 -
22.08.2019 03:00:00 22,0 22,0 2 1 E - 10 -
22.08.2019 02:00:00 22,4 21,7 2 1 E 1017,2 10 -
22.08.2019 01:00:00 24,0 23,0 2 1 SSO - 10 -
22.08.2019 00:00:00 24,0 23,0 2 1 SSO - 10 -
21.08.2019 23:00:00 24,0 23,3 4 2 SSE 1017,2 10 -
21.08.2019 22:00:00 24,0 24,0 5 3 SSO - 10 -
21.08.2019 21:00:00 25,0 24,0 8 4 SSO - 10 -
21.08.2019 20:00:00 26,4 23,9 8 4 OSO 1016,2 12 48
21.08.2019 19:00:00 29,0 23,0 13 7 O - 10 -
21.08.2019 18:00:00 29,0 23,0 16 9 O - 10 -
21.08.2019 17:00:00 29,8 24,7 16 9 O 1016,4 20 60
21.08.2019 16:00:00 31,0 22,0 18 10 O - 10 -
21.08.2019 15:00:00 33,0 19,0 13 7 SO - 10 -
21.08.2019 14:00:00 32,2 19,1 5 3 SO 1017,1 15 60
21.08.2019 13:00:00 32,0 23,0 11 6 SO - 10 -
21.08.2019 12:00:00 31,0 24,0 11 6 SSO - 10 -
21.08.2019 11:00:00 30,0 23,4 8 4 OSO 1017,8 12 60
21.08.2019 10:00:00 28,0 23,0 2 1 SSE - 10 -
21.08.2019 09:00:00 26,0 22,0 5 3 ENE - 10 -
21.08.2019 08:00:00 21,4 19,7 5 3 NE 1017,4 10 12
21.08.2019 07:00:00 20,0 18,0 4 2 NE - 10 -
21.08.2019 06:00:00 20,0 18,0 4 2 NE - 10 -
21.08.2019 05:00:00 20,0 18,3 4 2 NNE 1016,7 20 -
21.08.2019 04:00:00 20,0 20,0 4 2 NNE - 10 -
21.08.2019 03:00:00 21,0 20,0 4 2 N - 10 -
21.08.2019 02:00:00 21,4 20,6 4 2 E 1017,2 20 -
21.08.2019 01:00:00 23,0 22,0 0 0 N - 10 -
21.08.2019 00:00:00 23,0 22,0 0 0 N - 10 -
20.08.2019 23:00:00 23,4 22,6 4 2 ENE 1017,2 20 -
20.08.2019 22:00:00 24,0 23,0 4 2 SSO - 10 -
20.08.2019 21:00:00 25,0 23,0 5 3 SO - 10 -
20.08.2019 20:00:00 26,6 23,9 5 3 OSO 1016,6 20 48
20.08.2019 19:00:00 30,0 24,0 8 4 O - 10 -
20.08.2019 18:00:00 30,0 26,0 9 5 O - 10 -
20.08.2019 17:00:00 30,6 25,9 15 8 OSO 1017,0 20 60
20.08.2019 16:00:00 31,0 26,0 21 11 OSO - 10 -
20.08.2019 15:00:00 32,0 24,0 21 11 OSO - 10 -
20.08.2019 14:00:00 32,0 20,3 16 9 OSO 1017,2 20 60
20.08.2019 13:00:00 33,0 19,0 15 8 SO - 10 -
20.08.2019 12:00:00 33,0 12,0 8 4 N - 10 -

tt = Temperatura
td = dewpoint
ff = velocità del vento
dd = direzione del vento
ppp = reduced air pressure
vv = visibility
sd = ore di luce

Stazioni seguenti

WeatherPro
AMSI
MeteoEarth